Regional Weather Roundup
Issued by NWS

Home | Current Version | Previous Version | Graphics & Text | Print | Product List | Glossary On
Versions: 1 2 3 4 5 6 7 8 9 10 11 12 13 14 15 16 17 18 19 20 21 22 23 24 25 26 27 28 29 30 31 32 33 34 35 36 37 38 39 40 41 42 43 44 45 46 47 48 49 50
000
ASUS43 KFSD 022302
RWRSD

WEATHER ROUNDUP FOR SOUTH DAKOTA
NATIONAL WEATHER SERVICE SIOUX FALLS SD
600 PM CDT TUE SEP 02 2014

NOTE: "FAIR" INDICATES FEW OR NO CLOUDS BELOW 12,000 FEET WITH NO
SIGNIFICANT WEATHER AND/OR OBSTRUCTIONS TO VISIBILITY.


SDZ001>005-009-010-012>017-030000-
NORTHWEST AND NORTH CENTRAL SOUTH DAKOTA

CITY           SKY/WX    TMP DP  RH WIND       PRES   REMARKS
BUFFALO          N/A     77  44  30 NW5       29.76F
FAITH            N/A     80  47  31 W9        29.80F
MOBRIDGE       MOSUNNY   80  53  39 W6        29.75F
$$

SDZ012>016-024>037-041>051-057-063-072>074-030000-
SOUTHWEST AND SOUTH CENTRAL SOUTH DAKOTA

CITY           SKY/WX    TMP DP  RH WIND       PRES   REMARKS
RAPID CTY ARPT MOSUNNY   80  48  32 E9        29.84F
PIERRE         MOSUNNY   83  47  28 S14G22    29.79F
CUSTER         SUNNY     74  28  18 NW7       29.97F
ELLSWORTH AFB  SUNNY     80  46  29 VRB6      29.83F
PHILIP         SUNNY     85  47  26 W9        29.79F
PINE RIDGE     SUNNY     82  43  25 NW6       29.86F
WINNER         FAIR      82  51  34 S14G22    29.85F
$$

SDZ004>011-016>023-039-040-030000-
NORTHEAST SOUTH DAKOTA

CITY           SKY/WX    TMP DP  RH WIND       PRES   REMARKS
ABERDEEN       MOSUNNY   78  54  43 SW7       29.79F
WATERTOWN      MOSUNNY   75  52  44 SW15      29.86F
SISSETON         N/A     78  54  43 SW12      29.80S
$$

SDZ017-020-022-023-036>040-048>070-030000-
SOUTHEAST SOUTH DAKOTA

CITY           SKY/WX    TMP DP  RH WIND       PRES   REMARKS
SIOUX FALLS    MOSUNNY   74  55  51 SW13G20   29.91F
HURON          SUNNY     79  49  34 S12G21    29.84F
CHAMBERLAIN    SUNNY     77  54  43 S8        29.84F
MITCHELL       SUNNY     78  55  44 S13       29.87F
YANKTON        SUNNY     77  57  50 S10       29.90F
$$

ABBREVIATIONS USED IN REMARKS
   TC - TEMPERATURE IN CELSIUS
  WCI - WIND CHILL INDEX
   HX - HEAT INDEX
  VSB - VISIBILITY



USA.gov is the U.S. government's official web portal to all federal, state and local government web resources and services.